Вернуться в каталог

STARLINK-37481

АктивенСвязьVLEO
NORAD 100032·PAYLOAD·🇺🇸 United States

Запущен Jul 14, 2026 с Cape Canaveral Space Force Station

Loading…

Ближайшие Пролёты (ближайшие 24 часа)

TLE

СвежийSource: Space-Track

Эпоха: Sep 14, 2026, 09:26 UTC

1 A0032U 26161E   26257.39333153  .00020625  00000-0  61988-3 0  9993
2 A0032  53.1608  26.2080 0002361  87.6279 272.4994 15.34398906  9676

Отслеживайте STARLINK-37481 в реальном времени с AllMySat

Download on the App Store